#timestamp,LO_Frequency,Hit,StdDev 
1521986415.5,286046998.6,N
1521986435.3,286046998.1,N
1521986455.2,286047000.8,N
1521986475.9,286047000.7,N
1521986495.7,286046999.4,N
1521986515.6,286046998.3,N
1521986535.4,286046998.5,N
1521986555.3,286047000.9,N
1521986575.1,286047000.7,N
1521986576.0,286047000.7,N
1521986595.8,286047000.9,N
1521986615.7,286046999.9,N
1521986635.5,286046999.8,N
1521986655.4,286047002.7,N
1521986675.2,286047002.8,N
1521986695.0,286047002.8,N
1521986695.9,286047002.8,N
1521986715.8,286047002.8,N
1521986735.6,286047000.9,N
1521986755.5,286047000.3,N
1521986775.3,286046999.7,N
1521986795.1,286047000.0,N
1521986815.9,286047000.4,N
1521986835.7,286047000.3,N
1521986855.5,286047002.7,N
1521986875.4,286047004.2,Y
1521986895.2,286047001.7,P
1521986915.1,286047002.0,P
1521986916.0,286047002.0,P
1521986935.8,286047000.1,N
1521986955.6,286047002.8,Y
1521986975.5,286047000.3,P
1521986995.3,286047000.9,N
1521987015.1,286047002.2,P
1521987035.9,286047002.4,Y
1521987055.7,286047001.1,P
1521987075.6,286047000.7,P
1521987095.4,286047000.4,N
1521987115.2,286047000.2,N
1521987135.1,286047000.4,N
1521987136.0,286047000.4,N
1521987155.8,286046998.8,Y
1521987175.7,286046997.6,P
1521987195.5,286046996.8,N
1521987215.3,286046996.9,N
1521987235.2,286046997.0,N
1521987255.0,286046997.8,N
1521987255.9,286046997.8,N
1521987275.7,286046998.0,N
1521987295.6,286046997.9,N
1521987315.4,286046996.8,N
1521987335.3,286046997.8,N
1521987355.1,286046997.0,N
1521987375.8,286046997.7,N
1521987395.7,286046995.0,Y
1521987415.5,286046997.2,P
1521987435.4,286046999.4,N
1521987455.2,286046999.0,N
1521987475.0,286046998.1,N
1521987475.9,286046998.1,N
1521987495.8,286046998.8,N
1521987515.6,286046996.9,Y
1521987535.4,286046998.4,P
1521987555.3,286047000.7,P
1521987575.1,286046998.3,N
1521987595.9,286046999.8,N
1521987615.7,286047001.6,N
1521987635.5,286047003.5,N
1521987655.4,286047007.2,Y
1521987675.2,286047005.1,P
1521987695.1,286047003.3,N
1521987696.0,286047003.3,N
1521987715.8,286047004.1,N
1521987735.6,286047001.4,N
1521987755.5,286047003.7,N
1521987775.3,286047004.3,N
1521987795.1,286047001.3,N
1521987815.9,286047003.1,N
1521987835.7,286047003.2,N
1521987855.6,286047003.5,N
1521987875.4,286047001.3,N
1521987895.2,286047002.8,N
1521987915.1,286047002.4,N
1521987916.0,286047002.4,N
1521987935.8,286047001.9,N
1521987955.6,286047002.2,N
1521987975.5,286047001.7,N
1521987995.3,286047002.7,N
1521988015.2,286047000.2,N
1521988035.9,286046999.9,N
1521988055.7,286046999.9,N
1521988075.6,286047000.2,N
1521988095.4,286047000.2,N
1521988115.2,286046999.7,N
1521988135.1,286046999.9,N
1521988136.0,286046999.9,N
1521988155.8,286047000.5,N
1521988175.7,286047001.2,N
1521988195.5,286047000.0,N
1521988215.3,286047000.8,N
1521988235.2,286047000.8,N
1521988255.0,286047002.7,N
1521988255.9,286047002.7,N
1521988275.7,286047000.5,N
1521988295.6,286047001.2,N
1521988315.4,286047000.0,N
1521988335.3,286047001.2,N
1521988355.1,286047000.8,N
1521988375.8,286047000.7,N
1521988395.7,286047000.3,N
1521988415.5,286047000.5,N
1521988435.4,286046998.5,N
1521988455.2,286047000.1,N
1521988475.0,286046999.8,N
1521988475.9,286046999.8,N
1521988495.8,286047000.4,N
1521988515.6,286046999.8,N
1521988535.4,286047002.5,N
1521988555.3,286047002.5,N
1521988575.1,286047001.6,N
1521988595.9,286046999.9,N
1521988615.7,286047000.2,N
1521988635.5,286046999.9,N
1521988655.4,286047000.3,N
1521988675.2,286047000.2,N
1521988695.1,286047000.1,N
1521988696.0,286047000.1,N
1521988715.8,286046998.1,N
1521988735.6,286047001.1,N
1521988755.5,286047000.7,N
1521988775.3,286047001.2,N
1521988795.2,286047000.9,N
1521988815.9,286047001.0,N
1521988835.7,286046999.7,N
1521988855.6,286047002.5,N
1521988875.4,286047001.4,N
1521988895.2,286047002.4,N
1521988915.1,286046999.7,N
1521988916.0,286046999.7,N
1521988935.8,286047000.5,N
1521988955.7,286047000.8,N
1521988975.5,286047000.9,N
1521988995.3,286047001.0,N
1521989015.2,286047000.3,N
1521989035.0,286047000.2,N
1521989035.9,286047000.2,N
1521989055.8,286047000.2,N
1521989075.6,286046999.8,N
1521989095.4,286047002.3,N
1521989115.3,286046999.9,N
1521989135.1,286047000.2,N
1521989155.9,286047002.8,Y
1521989175.7,286047000.4,P
1521989195.5,286047001.1,P
1521989215.4,286047001.1,P
1521989235.2,286046998.5,Y
1521989285.1,286046998.2,E
1521989295.0,286047000.9,N
1521989295.9,286047000.9,P
1521989315.7,286047000.3,P
1521989335.6,286047001.9,Y
1521989355.4,286047002.6,P
1521989375.3,286047000.4,N
1521989395.1,286047002.1,N
1521989415.8,286047002.2,N
1521989435.7,286047000.2,N
1521989455.5,286047000.9,N
1521989475.4,286046999.9,N
1521989495.2,286046999.8,N
1521989515.0,286046999.7,N
1521989515.9,286046999.7,N
1521989535.8,286047002.7,N
1521989555.6,286047002.8,N
1521989575.4,286047000.8,N
1521989595.3,286047001.0,N
1521989615.1,286046999.7,N
1521989635.9,286047000.2,N
1521989655.7,286046999.9,N
1521989675.5,286047002.8,N
1521989695.4,286047002.0,N
1521989715.2,286047002.7,N
1521989735.0,286047000.6,N
1521989736.0,286047000.6,N
1521989755.8,286047000.4,N
1521989775.6,286046999.7,N
1521989795.5,286047002.7,N
1521989815.3,286047002.5,N
1521989835.1,286047003.1,N
1521989855.9,286047006.0,Y
1521989875.7,286047001.7,P
1521989895.6,286047004.1,P
1521989915.4,286047004.0,P
1521989935.2,286047002.0,N
1521989955.1,286047002.5,N
1521989956.0,286047002.5,N
1521989975.8,286047000.1,N
1521989995.6,286047002.3,N
